User: anonymous   Login
Location: Lobos
(35.3000°S, 59.0940°W)
Time: 00:43:30
(UTC-03:00)
Language:

STARLINK-1756 - Orbit

View from above orbital plane
View from above orbital plane
View from above satellite
View from above satellite

Ground track
Ground track

The orbit data is extracted from the following two-line orbital elements,

1 46379C 20062BH  20337.81125719 -.00002367  00000-0 -25784-4 0  3374
2 46379  52.9980 347.1215 0003488   7.3112 305.1617 15.62761316    16
Epoch (UTC): 02 December 2020 19:28:12
Eccentricity: 0.0003488
inclination: 52.9980°
perigee height: 377 km
apogee height: 382 km
right ascension of ascending node: 347.1215°
argument of perigee: 7.3112°
revolutions per day: 15.62761316
mean anomaly at epoch: 305.1617°
orbit number at epoch: 1

The dashed part of the orbit path shows where the satellite is in the earth's shadow,  

DLR